This is the latest recevied weather packets stored in our database for station/object KB1WCR. If no packets are shown the sender has not sent any weather packets the latest 10 day(s).
| Time | Temp. | Humidity | Pressure | Rain* | Wind** | Luminosity | Snow |
|---|---|---|---|---|---|---|---|
| 1777490892 | 8.89° C | 89% | 1015.9 hPa | 0 mm | - | 268 W/m² | - |
| 1777490589 | 8.89° C | 89% | 1016.1 hPa | 0 mm | - | 257 W/m² | - |
| 1777490285 | 8.89° C | 88% | 1016.2 hPa | 0 mm | - | 225 W/m² | - |
| 1777489982 | 8.33° C | 90% | 1016.3 hPa | 0 mm | - | 217 W/m² | - |
| 1777489680 | 8.89° C | 89% | 1016.4 hPa | 0 mm | - | 223 W/m² | - |
| 1777489376 | 8.89° C | 88% | 1016.4 hPa | 0 mm | - | 224 W/m² | - |
| 1777489073 | 8.89° C | 87% | 1016.5 hPa | 0 mm | - | 225 W/m² | - |
| 1777488770 | 8.89° C | 87% | 1016.4 hPa | 0 mm | - | 240 W/m² | - |
| 1777488468 | 9.44° C | 86% | 1016.4 hPa | 0 mm | - | 280 W/m² | - |
| 1777488166 | 8.89° C | 88% | 1016.5 hPa | 0 mm | - | 349 W/m² | - |
| 1777487863 | 9.44° C | 87% | 1016.4 hPa | 0 mm | - | 311 W/m² | - |
| 1777487561 | 9.44° C | 87% | 1016.5 hPa | 0 mm | - | 306 W/m² | - |
| 1777487258 | 8.89° C | 87% | 1016.8 hPa | 0 mm | - | 333 W/m² | - |
| 1777486955 | 9.44° C | 86% | 1016.7 hPa | 0 mm | - | 394 W/m² | - |
| 1777486651 | 9.44° C | 87% | 1016.7 hPa | 0 mm | - | 396 W/m² | - |
| 1777486349 | 9.44° C | 85% | 1016.7 hPa | 0 mm | - | 341 W/m² | - |
| 1777486046 | 9.44° C | 86% | 1016.8 hPa | 0 mm | - | 343 W/m² | - |
| 1777485743 | 9.44° C | 85% | 1016.6 hPa | 0 mm | - | 327 W/m² | - |
| 1777485438 | 9.44° C | 85% | 1016.6 hPa | 0 mm | - | 342 W/m² | - |
| 1777485134 | 10° C | 84% | 1016.6 hPa | 0 mm | - | 389 W/m² | - |
| 1777484831 | 10° C | 84% | 1016.4 hPa | 0 mm | - | 381 W/m² | - |
| 1777484528 | 10° C | 84% | 1016.4 hPa | 0 mm | - | 369 W/m² | - |
| 1777484225 | 10° C | 83% | 1016.2 hPa | 0 mm | - | 401 W/m² | - |
| 1777483921 | 10° C | 83% | 1016.1 hPa | 0 mm | - | 427 W/m² | - |
| 1777483617 | 10° C | 85% | 1016.6 hPa | 0 mm | - | 409 W/m² | - |
* Rain latest hour (hover to see other rain measurements)
** Current wind speed in m/s (hover to see current wind gust speed)